Temperature
14 14 15 15 12 10 12 13 14 16 16 18 18 18 16 16 16 16 15 16 16 16 16 16 16 17 17 17 17 17 17 17 17 17 17 17 17 17 17 17 17 17 17 16 16 16 16 16 16
14 14 15 14 11 11 12 13 15 16 17 18 18 17 16 16 16 15 15 16 16 16 16 16 16 16 16 17 17 17 17 17 17 17 17 17 17 17 17 17 16 16 16 16 16 16 16 16 16
13 14 14 10 11 11 13 14 14 16 17 17 17 17 16 15 15 15 15 15 16 16 16 16 16 16 16 16 16 16 17 17 17 17 17 17 17 17 17 16 16 16 16 16 16 16 16 16 15
13 14 13 10 11 12 13 14 14 15 17 17 16 15 15 15 15 15 15 15 16 16 16 16 16 16 16 16 16 16 16 16 16 16 16 16 16 16 16 16 16 16 16 16 16 16 15 15 15
13 13 10 10 11 12 13 14 15 15 15 16 15 14 14 14 15 15 15 15 15 15 16 16 16 16 16 16 16 16 16 16 16 16 16 16 16 16 16 16 16 16 16 16 15 15 15 15 15
13 10 9 10 11 13 13 15 15 14 14 15 15 13 13 14 14 14 14 15 15 15 15 15 15 15 16 16 16 16 16 16 16 16 16 16 16 16 16 16 16 16 16 15 15 15 15 15 15
11 8 9 11 11 12 13 14 14 13 13 14 14 13 13 13 13 14 14 14 14 15 15 15 15 15 15 15 15 15 15 16 16 16 16 16 16 16 16 16 15 15 15 15 15 15 15 15 15
12 9 10 11 12 12 13 14 14 14 13 14 14 12 12 13 13 13 14 14 14 14 14 14 14 15 15 15 15 15 15 15 15 15 15 15 15 15 15 15 15 15 15 15 15 15 15 15 15
12 8 9 11 11 12 13 12 13 13 13 13 13 13 12 12 13 13 13 13 14 14 14 14 14 14 14 14 15 15 15 15 15 15 15 15 15 15 15 15 15 15 15 15 15 15 15 15 15
11 8 10 11 11 11 12 12 12 13 12 12 12 12 12 12 12 12 13 13 13 13 13 13 13 14 14 14 14 14 15 15 15 15 15 15 15 15 15 15 15 15 15 15 15 15 15 15 15
10 9 10 11 12 12 11 11 12 11 10 11 11 11 12 12 12 12 12 12 12 12 12 12 13 13 13 14 14 14 14 14 14 15 15 15 15 15 15 15 15 15 14 14 14 14 14 15 15
10 10 11 11 12 12 11 11 11 11 11 11 11 11 11 11 11 11 11 11 11 12 12 12 12 12 13 13 13 13 14 14 14 14 14 14 14 14 14 14 15 14 14 14 14 14 14 14 14
10 10 10 11 11 11 11 10 10 10 11 11 11 11 11 11 11 11 10 11 11 11 11 12 12 12 12 12 12 13 13 13 13 14 14 14 14 14 14 14 14 14 14 14 14 14 14 14 14
9 10 10 10 11 11 10 10 10 10 11 11 11 11 11 10 10 10 10 10 10 10 11 11 11 11 12 12 12 12 12 13 13 13 13 14 14 14 14 14 14 14 14 14 14 14 14 14 14
10 9 9 10 10 10 10 9 9 11 10 10 10 10 10 10 10 10 9 10 10 10 10 10 11 11 11 11 11 12 12 12 13 13 13 13 13 13 13 14 14 14 14 14 14 14 14 14 14
9 8 8 9 10 10 10 9 9 10 10 10 10 10 10 9 9 9 9 9 9 9 10 10 10 10 11 11 11 11 11 12 12 12 13 13 13 13 13 13 13 14 14 14 13 13 13 13 13
7 7 7 9 9 9 9 8 9 10 10 9 9 9 9 9 9 9 9 9 9 9 9 9 10 10 10 10 11 11 11 11 12 12 12 12 12 13 13 13 13 13 13 13 13 13 13 13 13
7 7 7 8 9 9 8 8 8 9 9 9 8 9 8 8 8 8 8 8 8 8 9 9 9 9 10 10 10 10 11 11 11 11 12 12 12 12 12 12 13 13 13 13 13 13 13 13 13
7 7 7 7 8 8 8 8 8 8 8 8 8 8 8 8 8 8 8 8 8 8 8 8 8 9 9 9 10 10 10 11 11 11 11 11 12 12 12 12 12 12 12 12 12 13 12 12 12
7 7 7 7 8 8 7 7 8 8 7 8 8 8 8 8 8 8 8 8 8 8 8 8 8 8 8 9 9 9 9 10 10 10 11 11 11 11 11 12 12 12 12 12 12 12 12 12 12
7 7 7 7 7 8 7 7 7 7 8 8 8 8 8 7 7 7 7 7 7 7 7 7 7 8 8 8 8 9 9 9 9 9 10 10 10 11 11 11 11 11 11 12 12 12 12 12 12
7 7 8 7 6 6 7 6 7 7 7 6 7 7 7 7 7 7 7 7 7 7 7 7 7 7 7 7 8 8 8 8 9 9 9 10 10 11 10 10 11 11 11 11 11 11 11 11 11
7 7 7 7 6 6 6 6 6 6 6 6 6 7 7 7 7 7 6 6 6 6 6 6 7 7 7 7 7 7 8 8 8 8 9 9 10 10 10 10 10 10 10 11 11 11 11 11 11
7 7 6 5 5 6 6 6 6 6 6 6 6 7 7 7 7 6 6 6 6 6 6 6 6 6 6 7 7 7 7 7 8 8 8 9 9 9 9 10 10 10 10 10 10 10 10 10 10
6 5 5 5 5 6 6 6 6 7 6 6 6 7 7 7 6 6 6 6 5 5 6 6 6 6 6 6 6 7 7 7 7 8 8 8 8 8 9 9 9 9 9 10 10 10 10 10 10
6 6 5 6 6 5 6 6 6 7 7 7 7 7 7 6 6 6 5 5 5 5 5 5 5 6 6 6 6 6 6 7 7 7 7 7 8 8 8 9 9 9 9 9 9 9 9 9 9
6 5 6 5 5 5 5 6 6 7 6 6 6 7 7 6 6 6 5 5 5 5 5 5 5 5 5 6 6 6 6 6 7 7 7 7 7 7 8 8 8 8 9 9 9 9 9 9 9
6 6 4 5 5 6 6 6 6 6 6 5 5 6 6 6 6 5 5 5 5 5 5 5 5 5 5 5 5 5 6 6 6 6 6 6 7 7 7 7 8 8 8 8 8 8 8 8 8
6 6 5 4 4 5 6 6 6 6 6 5 5 6 6 6 6 5 5 5 5 5 5 5 5 5 5 5 5 5 5 5 6 6 6 6 6 6 7 7 7 7 7 7 7 7 7 7 7
6 6 5 5 4 4 4 6 7 6 6 6 6 6 6 6 5 5 5 5 5 4 4 4 4 4 4 5 5 5 5 5 5 5 5 6 6 6 6 6 7 7 7 7 7 7 7 7 7
Wind_Speed
8 8 3 4 5 4 3 5 3 1 1 1 0 4 6 4 3 6 3 2 3 4 4 5 6 7 8 9 10 11 11 11 12 12 12 12 12 13 13 14 13 13 13 12 12 13 13 13 14
5 3 5 5 5 3 4 5 4 3 3 1 3 4 6 4 3 5 1 2 4 4 4 4 5 6 7 7 8 10 10 11 11 12 12 12 12 12 13 13 13 12 12 12 12 13 13 13 13
4 2 4 5 4 6 5 4 5 2 1 2 3 4 4 3 3 2 0 1 4 4 4 4 5 4 6 6 6 8 10 10 11 12 12 12 11 12 13 13 12 12 13 12 13 13 13 13 12
4 4 5 4 4 4 4 3 3 2 2 4 4 4 3 3 2 2 1 4 5 4 4 3 4 3 4 6 6 7 8 10 10 11 12 12 12 12 12 13 12 13 13 13 13 13 13 12 12
4 4 4 1 3 4 3 3 2 2 2 3 3 4 2 4 3 4 4 5 4 3 4 3 2 2 3 5 6 6 7 9 10 11 11 12 12 13 12 13 13 14 14 14 13 14 13 12 11
4 4 4 3 4 3 3 2 2 3 2 3 3 3 1 3 5 4 5 4 4 3 3 2 1 0 2 4 6 7 7 8 9 11 11 11 13 13 12 13 14 14 15 15 14 14 13 12 10
4 5 5 5 3 2 2 1 3 3 2 1 1 3 1 3 3 3 5 5 5 5 5 4 3 2 2 4 6 7 8 8 9 10 11 11 12 13 13 13 14 15 16 16 15 14 14 12 11
5 5 3 3 4 3 1 2 2 2 1 1 3 4 2 3 3 5 6 6 5 5 4 4 4 3 3 3 5 7 8 8 9 11 11 11 12 13 14 14 14 15 16 16 16 14 13 12 11
4 4 3 3 4 3 1 2 2 1 2 2 2 2 2 2 3 6 6 6 6 6 5 4 4 4 4 5 5 5 7 8 9 10 11 11 10 12 13 14 15 16 17 17 16 15 14 12 11
4 4 5 2 3 2 1 2 1 3 3 3 3 3 3 3 4 4 4 6 6 7 6 4 4 4 4 5 4 4 5 6 7 8 9 9 9 10 12 14 16 17 17 17 17 16 14 12 9
3 5 2 1 1 2 1 2 2 2 1 1 1 2 3 3 3 3 4 4 5 5 6 6 5 4 3 3 3 2 3 4 5 7 9 8 8 8 9 9 11 13 15 13 14 14 11 10 9
2 1 1 1 1 1 1 1 2 0 4 3 3 1 1 3 3 3 4 5 5 5 6 6 5 4 4 3 2 2 2 2 3 5 8 7 5 5 6 6 8 10 10 10 10 9 10 10 10
1 0 1 1 2 1 2 1 0 3 4 2 1 2 1 2 3 3 3 4 5 6 7 7 6 5 5 3 3 2 3 3 3 3 6 7 6 6 7 6 8 9 10 9 8 8 8 8 8
2 1 1 2 1 1 2 1 0 4 2 1 1 1 1 2 3 3 4 5 5 6 6 6 6 6 5 3 3 3 3 3 3 3 5 7 6 6 7 7 7 8 10 10 9 9 8 7 6
2 2 4 2 1 1 2 2 3 5 1 1 2 2 2 2 3 3 4 5 5 6 7 6 6 5 4 4 4 3 3 3 2 3 5 6 6 6 7 7 7 8 10 10 8 8 6 6 5
2 3 1 3 1 1 3 4 5 3 2 2 2 2 2 3 3 3 4 5 6 6 6 6 6 5 5 4 4 3 2 2 2 3 3 5 6 7 6 6 7 8 8 8 7 7 7 6 6
3 1 2 3 1 1 2 5 5 2 2 3 2 2 2 4 4 4 5 5 5 5 6 6 6 6 5 5 4 3 2 2 2 2 2 3 5 6 5 5 6 7 7 7 8 7 7 6 6
3 2 2 3 2 1 3 6 7 3 3 3 2 2 3 4 5 4 5 5 5 6 5 5 6 6 5 4 3 2 2 2 2 2 3 4 4 5 5 4 6 6 6 6 7 7 7 6 6
3 3 3 4 3 1 4 7 8 4 1 2 2 2 3 4 4 4 5 5 6 6 6 6 6 5 4 3 2 2 2 2 2 3 4 4 4 5 5 5 6 6 7 8 8 6 7 6 4
1 1 1 2 1 1 3 7 6 3 3 3 3 3 3 4 6 6 6 6 6 7 7 7 6 5 4 3 3 2 2 2 3 3 3 4 5 4 4 6 6 6 6 7 7 7 6 5 6
1 3 2 1 3 2 2 5 3 2 1 1 1 2 2 2 4 6 7 6 7 7 7 7 7 6 5 4 2 2 1 1 2 3 3 4 4 4 3 4 5 5 6 6 7 7 8 7 6
1 1 1 1 2 2 0 3 5 3 3 2 3 3 3 3 3 4 5 6 7 7 7 7 6 6 5 4 2 2 2 3 3 3 3 3 3 3 4 4 5 5 5 6 7 7 6 7 6
2 2 0 1 1 2 1 2 7 2 3 5 4 3 3 3 3 4 5 5 6 6 6 6 6 6 6 4 3 2 3 3 3 3 2 2 2 3 3 4 4 5 5 6 6 6 7 6 6
1 2 3 4 3 2 4 4 6 4 5 5 4 4 3 2 3 4 4 5 6 6 5 6 6 6 6 4 3 2 3 3 3 3 2 2 2 2 2 3 4 5 5 6 6 6 6 6 6
4 4 4 4 2 5 2 3 7 5 5 4 5 4 3 1 2 4 5 6 7 7 6 6 7 8 7 5 4 3 3 2 2 2 2 2 2 2 2 3 3 3 4 4 4 5 6 6 7
0 3 4 3 3 4 2 5 6 4 3 2 2 2 1 1 2 3 4 4 6 7 7 6 7 7 7 6 5 4 3 2 2 2 2 2 2 2 2 3 3 4 4 4 4 4 5 5 7
2 1 3 4 0 3 5 5 5 2 2 1 1 1 2 2 2 3 3 4 5 6 6 6 6 6 7 7 6 4 3 3 2 2 1 1 1 2 2 2 3 3 3 4 4 3 4 4 5
2 3 3 3 1 3 5 4 5 5 5 3 3 3 3 2 2 3 3 4 4 5 5 6 6 6 6 6 5 4 3 3 2 2 2 2 2 2 1 1 2 2 3 3 3 3 3 4 4
2 2 2 2 3 3 3 6 5 7 6 5 4 4 3 2 2 3 4 4 4 5 5 6 6 7 7 7 5 5 3 2 2 2 2 2 2 3 2 2 1 1 1 2 3 4 3 4 4
4 4 5 3 3 3 3 7 5 5 5 4 4 3 2 2 2 2 3 4 4 5 5 5 6 6 6 6 6 5 5 4 4 3 3 2 2 2 2 2 1 1 1 0 1 3 3 4 5
Wind_Direction
339 343 54 59 64 68 210 242 236 254 243 257 293 106 107 91 113 146 206 333 92 117 121 124 132 137 143 151 156 156 157 159 157 155 153 152 150 148 146 144 142 140 138 136 133 128 127 124 121
346 5 55 65 103 146 243 243 229 238 211 177 57 73 73 72 80 102 43 2 83 95 101 116 123 137 142 150 159 164 165 167 168 164 163 162 159 158 156 153 151 149 146 142 139 133 131 130 128
351 50 84 89 139 179 207 222 208 246 330 74 55 50 76 84 75 82 320 56 72 63 69 104 124 134 146 152 162 171 176 177 177 174 171 170 169 166 164 161 158 156 152 148 145 140 137 137 136
56 53 62 95 190 217 203 212 193 151 23 38 82 47 35 12 97 128 17 54 68 54 46 83 129 144 161 165 172 175 183 189 187 183 180 179 177 173 170 167 163 160 157 154 151 148 145 146 144
65 83 91 137 221 244 240 251 174 115 65 26 75 83 29 350 49 62 51 53 63 44 35 54 131 155 187 191 187 187 187 196 197 192 189 186 183 180 177 174 170 164 162 160 158 156 154 154 154
66 81 116 189 226 248 274 269 118 90 66 25 67 86 49 326 35 31 43 46 49 46 32 31 44 218 228 219 205 202 198 199 203 201 197 193 189 185 180 178 176 172 169 166 164 163 162 162 162
111 115 157 180 198 239 268 349 107 109 78 5 84 87 162 339 6 20 37 37 33 33 24 13 8 349 277 244 224 217 211 208 207 206 205 197 195 188 183 179 179 178 174 172 168 168 169 170 170
130 118 149 189 182 216 275 42 73 106 136 337 75 114 202 282 338 21 28 27 23 23 16 2 353 339 316 276 239 232 226 221 215 211 208 202 196 193 188 185 184 182 179 176 172 173 173 174 176
102 96 173 197 181 210 259 62 1 15 88 29 46 133 211 277 10 24 16 7 5 1 353 350 345 337 315 282 253 243 235 231 224 216 212 204 201 197 194 190 188 186 183 181 178 177 177 177 181
95 147 198 211 178 171 66 66 359 37 29 20 19 3 3 12 26 24 6 350 348 343 338 336 330 330 325 298 273 248 242 238 228 215 206 203 201 199 197 194 192 190 188 186 184 181 181 179 184
133 173 203 267 167 129 67 2 2 98 8 231 208 316 347 9 8 356 335 327 323 324 326 328 324 325 322 313 297 276 258 244 234 219 207 203 200 200 196 191 192 193 190 187 188 183 183 184 187
135 217 204 281 8 73 113 68 17 125 219 234 216 227 343 355 344 326 317 318 319 320 319 322 323 318 310 304 303 285 275 258 243 231 215 199 196 199 191 187 186 187 188 185 184 184 187 191 195
146 177 343 333 28 88 93 99 150 253 248 258 302 21 9 333 311 303 301 303 311 313 314 318 319 313 307 306 297 290 265 259 243 233 226 207 201 203 194 191 188 188 187 186 185 187 191 196 201
173 124 316 310 308 309 135 287 142 252 256 278 331 324 302 302 313 325 330 318 313 311 311 314 315 310 311 305 286 277 270 264 252 236 234 217 208 205 197 192 190 191 191 191 190 191 194 200 203
93 56 355 309 232 206 110 325 228 238 194 249 290 299 315 325 329 322 315 311 308 307 309 311 310 310 309 298 284 283 278 270 257 252 239 226 217 209 203 194 195 195 192 189 189 189 191 198 205
68 73 350 291 209 173 133 261 254 240 169 229 265 297 322 327 324 314 320 324 322 319 316 310 311 311 304 297 285 284 284 274 268 265 251 232 227 211 201 199 199 197 192 188 190 190 194 201 205
54 125 225 283 237 149 166 251 263 256 190 234 265 286 305 318 326 329 332 329 323 317 314 313 310 306 301 292 288 285 285 280 282 275 263 251 233 216 201 201 200 194 192 194 196 194 193 199 205
192 199 221 239 258 146 232 258 275 262 206 230 259 290 304 316 318 324 333 336 333 329 323 312 310 300 295 291 286 286 288 285 298 280 264 257 244 218 203 204 201 192 191 197 198 195 194 196 199
178 183 231 249 257 229 241 266 277 259 202 249 274 286 299 304 309 326 331 333 340 337 334 323 312 305 303 301 283 272 271 272 270 265 267 260 249 228 205 211 205 198 196 199 199 198 193 198 183
178 192 261 300 325 261 269 281 281 236 208 215 227 254 284 319 334 335 334 337 334 330 329 325 316 309 300 284 269 248 246 245 246 259 268 261 252 237 218 209 208 202 199 198 198 192 195 199 186
343 187 204 242 344 16 352 312 295 271 223 228 253 262 290 306 314 324 332 331 330 325 324 322 319 317 309 300 296 300 294 284 261 257 250 249 246 238 224 219 211 209 203 202 200 195 194 199 198
296 251 176 121 40 302 69 283 283 273 290 279 278 295 296 302 315 322 330 331 324 319 322 323 322 322 315 307 290 263 254 257 256 254 254 252 241 229 225 215 213 209 211 209 204 199 195 190 198
223 271 247 158 127 324 246 200 279 309 280 277 271 272 280 289 313 323 320 319 322 325 329 329 333 333 336 339 315 273 263 258 260 261 257 260 252 235 227 221 215 215 214 213 213 209 199 197 198
203 33 46 53 71 290 230 187 273 246 241 262 261 261 263 283 320 331 332 334 333 335 340 340 345 344 343 349 343 314 283 273 268 267 260 261 253 239 234 231 221 223 220 214 213 213 206 206 203
53 70 40 8 356 256 238 196 249 251 240 232 244 253 259 275 324 338 342 342 340 341 343 348 354 351 350 351 349 333 302 285 271 270 240 238 244 241 237 233 227 227 228 221 212 213 214 209 206
81 126 146 195 240 285 302 235 252 267 255 236 225 223 244 290 315 324 329 335 337 341 348 352 353 347 348 351 345 343 335 320 300 286 265 240 230 241 238 238 234 227 223 220 209 216 221 215 211
136 169 166 142 259 279 274 284 299 263 301 290 275 306 279 284 301 311 326 339 339 341 345 346 344 347 349 348 346 346 344 343 335 328 314 295 270 261 252 241 247 238 215 209 203 217 216 213 218
164 153 99 124 175 276 286 268 248 241 252 263 264 269 277 290 307 319 328 336 337 338 342 349 355 353 348 347 346 343 337 341 331 342 349 353 339 324 313 266 255 247 231 215 208 228 224 215 225
163 156 142 147 176 190 273 271 228 214 219 225 241 249 248 261 290 312 323 329 333 341 347 351 354 356 355 354 353 351 348 353 5 5 354 356 346 333 323 324 307 287 257 224 214 222 225 227 235
196 191 159 168 229 203 227 268 267 215 214 210 234 251 239 226 266 308 320 330 336 339 343 346 349 353 352 353 356 0 2 6 12 1 347 351 335 319 316 327 329 333 329 305 236 234 234 233 237
Height
1506 1507 1509 1512 1517 1527 1527 1520 1512 1509 1508 1507 1506 1506 1507 1511 1514 1522 1520 1517 1518 1518 1518 1519 1520 1521 1521 1523 1524 1525 1526 1527 1528 1529 1530 1531 1532 1533 1534 1534 1535 1536 1537 1538 1538 1539 1540 1541 1541
1506 1508 1511 1512 1521 1531 1526 1516 1511 1508 1506 1506 1506 1506 1507 1511 1513 1516 1516 1517 1517 1518 1518 1519 1519 1520 1521 1522 1523 1524 1525 1527 1528 1529 1530 1531 1532 1533 1534 1534 1536 1536 1537 1538 1539 1540 1541 1542 1542
1506 1508 1511 1514 1521 1525 1518 1510 1508 1506 1505 1505 1506 1507 1510 1513 1514 1515 1516 1517 1517 1517 1518 1518 1519 1520 1521 1522 1523 1524 1525 1526 1527 1528 1529 1530 1531 1532 1533 1534 1535 1536 1537 1538 1539 1540 1541 1542 1543
1506 1509 1511 1517 1519 1515 1510 1507 1505 1505 1505 1506 1506 1510 1512 1515 1515 1516 1516 1516 1516 1517 1517 1518 1518 1519 1520 1521 1522 1522 1524 1525 1526 1527 1528 1530 1531 1532 1533 1534 1535 1536 1537 1538 1539 1540 1541 1542 1543
1505 1508 1514 1519 1516 1511 1507 1505 1505 1505 1505 1506 1507 1510 1513 1515 1515 1515 1516 1516 1516 1516 1516 1517 1517 1518 1519 1520 1520 1521 1522 1523 1525 1526 1527 1528 1530 1531 1532 1533 1534 1535 1537 1538 1539 1540 1541 1543 1543
1505 1507 1519 1521 1515 1509 1506 1505 1505 1505 1506 1507 1508 1510 1514 1515 1514 1514 1515 1515 1515 1515 1515 1515 1516 1516 1517 1518 1519 1520 1520 1522 1523 1524 1525 1527 1528 1529 1531 1532 1533 1535 1536 1537 1538 1540 1541 1542 1543
1505 1510 1515 1515 1513 1510 1506 1505 1505 1506 1506 1508 1508 1510 1513 1513 1513 1513 1513 1513 1513 1513 1513 1513 1513 1514 1514 1515 1516 1517 1518 1519 1521 1522 1523 1525 1526 1528 1529 1531 1532 1533 1535 1536 1538 1539 1540 1542 1543
1504 1509 1511 1512 1510 1509 1506 1505 1505 1506 1507 1508 1508 1510 1511 1512 1512 1512 1511 1511 1511 1511 1511 1511 1511 1511 1511 1512 1513 1514 1516 1517 1518 1520 1521 1523 1524 1525 1527 1529 1530 1532 1533 1535 1536 1538 1539 1541 1542
1504 1512 1513 1509 1508 1507 1504 1505 1505 1506 1506 1507 1508 1509 1510 1511 1510 1510 1509 1508 1508 1508 1508 1508 1508 1508 1508 1509 1510 1511 1512 1514 1515 1516 1518 1520 1521 1523 1525 1526 1528 1530 1532 1533 1535 1536 1538 1539 1541
1503 1512 1508 1505 1504 1504 1504 1504 1505 1505 1506 1507 1507 1508 1509 1509 1508 1507 1506 1505 1505 1505 1505 1505 1505 1505 1505 1505 1506 1507 1508 1510 1511 1513 1514 1516 1518 1520 1522 1524 1526 1528 1530 1531 1533 1535 1536 1538 1539
1503 1507 1504 1503 1503 1503 1504 1505 1505 1505 1507 1507 1506 1506 1507 1507 1506 1505 1504 1503 1502 1502 1502 1502 1501 1501 1501 1501 1502 1503 1504 1505 1507 1509 1511 1513 1515 1516 1518 1520 1523 1525 1527 1529 1531 1532 1534 1535 1537
1504 1504 1503 1503 1503 1503 1504 1504 1505 1505 1506 1506 1505 1505 1505 1504 1504 1503 1502 1501 1500 1499 1498 1498 1497 1497 1497 1497 1498 1498 1500 1501 1502 1504 1506 1508 1510 1512 1514 1516 1518 1521 1523 1525 1527 1529 1531 1533 1535
1503 1504 1504 1503 1503 1503 1503 1504 1505 1505 1504 1505 1504 1504 1503 1502 1502 1501 1500 1498 1497 1496 1494 1494 1493 1493 1493 1493 1493 1494 1495 1496 1498 1500 1502 1504 1506 1508 1510 1512 1514 1517 1519 1522 1524 1526 1528 1530 1532
1503 1504 1504 1503 1503 1503 1503 1504 1505 1503 1504 1504 1503 1502 1502 1501 1499 1498 1497 1495 1494 1492 1491 1490 1489 1489 1489 1488 1489 1490 1491 1492 1494 1495 1497 1499 1501 1503 1506 1508 1510 1513 1515 1518 1520 1523 1525 1527 1529
1502 1505 1505 1503 1503 1503 1504 1505 1504 1502 1503 1502 1502 1501 1500 1499 1497 1496 1494 1492 1490 1488 1487 1486 1485 1485 1485 1485 1485 1485 1486 1488 1489 1491 1492 1494 1496 1498 1500 1503 1505 1508 1511 1514 1516 1519 1521 1523 1525
1504 1508 1510 1505 1503 1503 1507 1508 1502 1501 1501 1501 1500 1499 1498 1497 1495 1494 1492 1489 1487 1485 1483 1483 1482 1481 1480 1481 1481 1481 1482 1483 1485 1486 1488 1489 1491 1493 1496 1498 1500 1503 1506 1509 1512 1514 1516 1519 1521
1508 1512 1511 1507 1503 1503 1506 1506 1500 1500 1500 1500 1499 1498 1496 1495 1493 1491 1489 1487 1484 1482 1480 1479 1478 1477 1476 1476 1477 1477 1478 1479 1480 1481 1483 1485 1486 1488 1490 1492 1495 1498 1501 1504 1507 1509 1511 1514 1516
1511 1512 1510 1509 1504 1504 1505 1503 1499 1499 1499 1498 1497 1496 1495 1493 1491 1489 1487 1484 1482 1480 1477 1476 1474 1473 1472 1472 1472 1472 1473 1474 1475 1476 1478 1480 1481 1482 1484 1487 1490 1493 1496 1498 1502 1504 1507 1509 1512
1507 1509 1510 1507 1504 1505 1504 1502 1498 1497 1497 1496 1495 1494 1493 1492 1490 1487 1485 1482 1480 1477 1474 1472 1471 1469 1468 1468 1467 1467 1468 1469 1470 1472 1473 1474 1476 1478 1479 1482 1485 1487 1490 1492 1496 1499 1502 1504 1507
1507 1509 1509 1506 1503 1504 1504 1501 1497 1495 1495 1495 1494 1493 1492 1490 1488 1485 1483 1480 1477 1474 1472 1469 1467 1466 1465 1464 1463 1463 1464 1464 1465 1466 1468 1469 1471 1473 1474 1476 1479 1482 1485 1487 1490 1493 1496 1498 1502
1507 1508 1508 1507 1506 1505 1506 1503 1498 1495 1494 1493 1493 1492 1490 1489 1487 1484 1481 1478 1475 1472 1469 1466 1464 1463 1461 1460 1460 1459 1460 1459 1461 1462 1463 1465 1466 1468 1469 1471 1474 1477 1479 1482 1485 1487 1490 1492 1496
1509 1506 1506 1507 1511 1513 1510 1511 1499 1495 1494 1492 1491 1490 1488 1487 1485 1483 1480 1477 1474 1470 1467 1464 1461 1460 1458 1457 1456 1456 1455 1455 1456 1457 1458 1460 1461 1463 1465 1467 1470 1471 1474 1476 1479 1481 1484 1487 1489
1507 1505 1506 1508 1511 1514 1511 1513 1503 1496 1494 1491 1489 1488 1487 1486 1484 1481 1479 1476 1472 1469 1465 1463 1460 1457 1455 1454 1453 1453 1452 1453 1453 1454 1454 1455 1456 1458 1460 1462 1464 1466 1469 1471 1474 1476 1478 1481 1483
1506 1507 1508 1512 1515 1515 1508 1512 1504 1498 1492 1489 1488 1486 1485 1484 1482 1480 1478 1475 1471 1467 1464 1461 1458 1456 1453 1452 1451 1451 1450 1450 1450 1449 1449 1450 1452 1453 1455 1458 1460 1462 1464 1466 1468 1471 1473 1475 1477
1508 1514 1521 1519 1522 1514 1506 1507 1501 1490 1488 1487 1486 1485 1484 1483 1481 1479 1476 1473 1469 1466 1463 1460 1457 1454 1452 1451 1450 1449 1447 1446 1446 1446 1446 1447 1448 1449 1451 1453 1455 1457 1459 1461 1463 1465 1467 1470 1472
1510 1513 1521 1520 1520 1515 1506 1504 1495 1488 1485 1485 1484 1483 1483 1481 1480 1478 1475 1472 1469 1465 1462 1459 1456 1454 1451 1449 1448 1447 1445 1444 1444 1444 1444 1444 1445 1445 1447 1449 1451 1452 1454 1456 1458 1460 1462 1464 1466
1510 1513 1513 1520 1520 1519 1509 1501 1492 1487 1486 1484 1483 1482 1481 1480 1479 1477 1475 1472 1469 1465 1462 1458 1455 1453 1450 1448 1447 1445 1444 1443 1442 1442 1442 1441 1442 1442 1443 1445 1447 1448 1449 1451 1453 1455 1456 1458 1460
1509 1511 1518 1519 1518 1513 1506 1502 1496 1488 1486 1484 1483 1482 1480 1479 1478 1476 1474 1471 1468 1465 1462 1458 1455 1453 1450 1447 1445 1444 1443 1441 1440 1440 1439 1439 1439 1440 1440 1441 1442 1443 1444 1446 1448 1449 1451 1453 1454
1510 1511 1513 1519 1519 1517 1512 1500 1484 1483 1482 1482 1481 1480 1479 1478 1477 1475 1473 1470 1468 1465 1462 1458 1455 1452 1449 1447 1445 1443 1442 1440 1439 1438 1437 1437 1437 1437 1437 1438 1438 1439 1440 1442 1443 1445 1446 1448 1449
1507 1508 1512 1517 1517 1519 1518 1501 1479 1479 1479 1479 1479 1479 1478 1477 1476 1474 1472 1469 1467 1464 1461 1458 1455 1451 1449 1446 1444 1442 1440 1439 1437 1436 1435 1435 1435 1434 1434 1435 1435 1436 1437 1438 1439 1440 1441 1442 1444